[TLELIST] Archives

 

Current TLEs

August 17th 2006 PDT

HST 1 20580U 90037B 06228.57427375 .00000396 00000-0 18018-4 0 6775 2 20580 028.4686 016.2226 0003885 112.3715 247.7285 15.00076446694179 ISS (ZARYA) 1 25544U 98067A 06229.49828090 .00002901 00000-0 21936-4 0 5093 2 25544 051.6307 231.5641 0007278 199.8607 298.2561 15.76498817442830 CXO 1 25867U 99040B 06228.58333333 .00000000 00000-0 00000+0 0 9617 2 25867 060.0349 095.7674 5864016 289.5403 000.4518 00.37794474 1218 ____________________________________________________________________ These 2-Line ...Continue Reading

Current TLEs

August 16th 2006 PDT

HST 1 20580U 90037B 06227.77588393 +.00000406 +00000-0 +18802-4 0 06856 2 20580 028.4686 021.4257 0003888 103.8491 256.2533 15.00076145694054 ISS (ZARYA) 1 25544U 98067A 06227.82708333 +.00003057 +00000-0 +22902-4 0 05014 2 25544 051.6310 240.1789 0007321 193.6492 173.3828 15.76487623442579 CXO 1 25867U 99040B 06228.58333333 .00000000 00000-0 00000+0 0 9617 2 25867 060.0349 095.7674 5864016 289.5403 000.4518 00.37794474 1218 ____________________________________________________________________ These 2-Line ...Continue Reading

Current TLEs

August 15th 2006 PDT

HST 1 20580U 90037B 06226.77789641 .00000380 00000-0 16768-4 0 6764 2 20580 028.4685 027.9318 0003780 093.3469 266.7550 15.00075454693901 ISS (ZARYA) 1 25544U 98067A 06227.47405193 .00003221 00000-0 23913-4 0 4973 2 25544 051.6304 241.9993 0007443 191.6680 330.4339 15.76485532442514 CXO 1 25867U 99040B 06225.91666667 .00000000 00000-0 00000+0 0 9609 2 25867 060.0065 095.8521 5865940 289.5486 357.4355 00.37805708 1210 ____________________________________________________________________ These 2-Line ...Continue Reading

Current TLEs

August 14th 2006 PDT

HST 1 20580U 90037B 06225.91297328 +.00000386 +00000-0 +17232-4 0 06915 2 20580 028.4683 033.5695 0003750 084.2453 275.8570 15.00075107693772 ISS (ZARYA) 1 25544U 98067A 06226.45740683 .00003492 00000-0 25585-4 0 4928 2 25544 051.6315 247.2406 0007462 188.3559 320.0454 15.76478880442356 CXO 1 25867U 99040B 06225.91666667 .00000000 00000-0 00000+0 0 9609 2 25867 060.0065 095.8521 5865940 289.5486 357.4355 00.37805708 1210 ____________________________________________________________________ These 2-Line ...Continue Reading

Current TLEs

August 13th 2006 PDT

HST 1 20580U 90037B 06224.84845226 +.00000363 +00000-0 +15458-4 0 06915 2 20580 028.4685 040.5135 0003561 069.4121 290.6850 15.00074433693618 ISS (ZARYA) 1 25544U 98067A 06224.84553241 +.00004079 +00000-0 +29210-4 0 04865 2 25544 051.6315 255.5498 0007432 182.4832 171.8641 15.76467614442099 CXO 1 25867U 99040B 06225.91666667 .00000000 00000-0 00000+0 0 9609 2 25867 060.0065 095.8521 5865940 289.5486 357.4355 00.37805708 1210 ____________________________________________________________________ These 2-Line ...Continue Reading

Current TLEs

August 12th 2006 PDT

HST 1 20580U 90037B 06223.85046286 .00000337 00000-0 13388-4 0 6746 2 20580 028.4685 047.0193 0003484 058.2722 301.8201 15.00073828693466 ISS (ZARYA) 1 25544U 98067A 06224.49379535 .00003358 00000-0 24782-4 0 4822 2 25544 051.6312 257.3649 0007610 180.9613 335.8278 15.76462137442040 CXO 1 25867U 99040B 06225.91666667 .00000000 00000-0 00000+0 0 9609 2 25867 060.0065 095.8521 5865940 289.5486 357.4355 00.37805708 1210 ____________________________________________________________________ These 2-Line ...Continue Reading

Current TLEs

August 11th 2006 PDT

HST 1 20580U 90037B 06221.65488401 +.00000336 +00000-0 +13278-4 0 06748 2 20580 028.4682 061.3302 0003383 034.2930 325.7881 15.00073012693135 ISS (ZARYA) 1 25544U 98067A 06223.47652323 .00004896 00000-0 34252-4 0 4762 2 25544 051.6317 262.6090 0007745 177.5668 322.0500 15.76457513441884 CXO 1 25867U 99040B 06223.29166667 .00000000 00000-0 00000+0 0 9591 2 25867 059.9865 095.9684 5860295 289.5090 000.1529 00.37802834 1217 ____________________________________________________________________ These 2-Line ...Continue Reading

Current TLEs

August 10th 2006 PDT

HST 1 20580U 90037B 06221.98754753 .00000332 00000-0 12971-4 0 6734 2 20580 028.4684 059.1610 0003446 038.3686 321.7146 15.00073133693186 ISS (ZARYA) 1 25544U 98067A 06221.86442130 .00011830 00000-0 76916-4 0 4686 2 25544 051.6332 270.9168 0007979 171.1849 173.2120 15.76446519441629 CXO 1 25867U 99040B 06223.29166667 .00000000 00000-0 00000+0 0 9591 2 25867 059.9865 095.9684 5860295 289.5090 000.1529 00.37802834 1217 ____________________________________________________________________ These 2-Line ...Continue Reading

Current TLEs

August 9th 2006 PDT

HST 1 20580U 90037B 06220.65689290 .00000343 00000-0 13851-4 0 6729 2 20580 028.4681 067.8370 0003380 022.7504 337.3222 15.00072701692980 ISS (ZARYA) 1 25544U 98067A 06221.45895833 .00014491 00000-0 93271-4 0 4660 2 25544 051.6328 273.0087 0008174 169.4129 032.3601 15.76444050441567 CXO 1 25867U 99040B 06223.29166667 .00000000 00000-0 00000+0 0 9591 2 25867 059.9865 095.9684 5860295 289.5090 000.1529 00.37802834 1217 ____________________________________________________________________ These 2-Line ...Continue Reading

Current TLEs

August 8th 2006 PDT

HST 1 20580U 90037B 06219.92503249 +.00000350 +00000-0 +14388-4 0 06731 2 20580 028.4680 072.6080 0003287 013.9882 346.0791 15.00072483692871 ISS (ZARYA) 1 25544U 98067A 06219.89907407 +.00014994 +00000-0 +96519-4 0 04606 2 25544 051.6345 281.0465 0007989 163.9119 179.3885 15.76408082441310 CXO 1 25867U 99040B 06220.66666667 .00000000 00000-0 00000+0 0 9583 2 25867 059.9904 096.0328 5847483 289.5389 002.8331 00.37787759 1211 ____________________________________________________________________ These 2-Line ...Continue Reading
  • This mailing list is a public mailing list - anyone may join or leave, at any time.
  • This mailing list is announce-only.

International Space Station (ISS) / Hubble Space Telescope (HST) / Chandra X-Ray Observatory Orbital Data via EMAIL

Privacy Policy:

Private list